Location: ActonStarParty
(42.4766°N, 71.4538°W)
Time: 21:35:34
(UTC-04:00)

NOAA 11 - Pass Details

Date: 19 April 2018
Orbit: 833 x 850 km, 98.5° (Epoch: 22 May)

Event Time Altitude Azimuth Distance (km) Brightness Sun altitude
Exits shadow 20:53:30 12° 162° (SSE) 2,320 6.0 -14.5°
Maximum altitude 20:58:36 83° 76° (ENE) 862 4.2 -15.3°
Drops below altitude 10° 21:04:08 10° 348° (NNW) 2,486 7.3 -16.2°
Sets 21:06:31 0° 348° (NNW) 3,425 8.1 -16.6°
